DW3201 Weather Reports


time (UTC)temp
F
wind
direction
speed
knots
gust
knots
rain 1hr
in
rain 24hr
in
rain mn
in
humidity
%
barometer
mb
20260831001602 71 274 0.9 2.6 0.00 0.60 0.60 91 1013.5
20260831000105 71 278 0.9 2.6 0.00 0.60 0.60 91 1013.3
20260830234615 71 0 0.0 1.7 0.00 0.60 0.60 91 1013.2
20260830233105 72 278 0.0 0.9 0.00 0.60 0.60 91 1013.1
20260830231611 72 0 0.0 2.6 0.00 0.60 0.60 90 1013.0
20260830230105 72 231 0.9 2.6 0.00 0.60 0.60 91 1013.1
20260830224609 72 278 0.9 2.6 0.01 0.60 0.60 90 1013.2
20260830223103 72 280 1.7 3.5 0.01 0.60 0.60 89 1013.1
20260830221605 72 284 0.9 4.3 0.01 0.60 0.60 89 1013.2
20260830220115 72 253 1.7 5.2 0.02 0.60 0.60 90 1013.1
20260830214558 72 277 1.7 3.5 0.02 0.58 0.58 91 1013.2
20260830213126 71 273 0.9 3.5 0.05 0.58 0.58 92 1013.2
20260830211602 71 274 2.6 5.2 0.05 0.58 0.58 92 1013.1
20260830210106 70 246 1.7 4.3 0.05 0.58 0.58 92 1013.0
20260830204602 70 245 0.0 1.7 0.04 0.58 0.57 92 1013.3
20260830203110 70 0 0.0 2.6 0.01 0.56 0.54 92 1013.4
20260830201605 71 274 2.6 5.2 0.03 0.56 0.54 91 1013.4
20260830200104 71 285 1.7 5.2 0.02 0.55 0.52 90 1013.5
20260830194613 71 278 2.6 8.7 0.09 0.55 0.52 89 1013.7
20260830193102 72 252 3.5 7.8 0.09 0.55 0.52 87 1013.9
20260830191601 73 264 2.6 7.8 0.07 0.52 0.51 85 1014.0
20260830190101 74 257 2.6 7.0 0.07 0.52 0.51 83 1013.9
20260830184614 78 271 6.1 14.8 0.00 0.46 0.44 73 1013.6
20260830183103 79 255 6.1 9.6 0.00 0.46 0.44 70 1013.3
20260830181606 79 249 5.2 11.3 0.00 0.46 0.44 69 1013.3
20260830180106 81 284 7.8 13.0 0.00 0.46 0.44 64 1013.0
20260830174603 82 293 5.2 11.3 0.00 0.46 0.44 63 1012.8
20260830173100 83 278 3.5 7.8 0.00 0.46 0.44 61 1012.4
20260830171605 83 260 4.3 10.4 0.00 0.46 0.44 59 1012.5
20260830164604 83 240 5.2 10.4 0.00 0.46 0.44 60 1012.5
20260830163103 83 264 4.3 7.0 0.00 0.46 0.44 60 1012.6
20260830161627 82 257 3.5 7.0 0.00 0.46 0.44 62 1012.5
20260830160103 81 262 3.5 6.1 0.00 0.46 0.44 64 1012.7
20260830154606 81 273 0.9 4.3 0.00 0.46 0.44 66 1012.8
20260830153106 80 260 3.5 7.8 0.00 0.46 0.44 66 1012.9
20260830151612 79 252 1.7 5.2 0.00 0.46 0.44 69 1012.7
20260830144627 76 249 2.6 8.7 0.00 0.46 0.44 73 1012.6
20260830143110 76 0 2.6 5.2 0.00 0.46 0.44 73 1012.4
20260830141559 74 262 0.9 3.5 0.00 0.46 0.44 77 1012.5
20260830134601 72 240 0.9 3.5 0.00 0.46 0.44 82 1012.7
20260830133104 72 288 0.9 3.5 0.00 0.46 0.44 83 1012.9
20260830131601 71 271 0.9 2.6 0.00 0.46 0.44 85 1013.2
20260830130113 70 0 0.0 1.7 0.00 0.46 0.44 88 1013.3
20260830124556 69 0 0.0 1.7 0.00 0.46 0.44 89 1013.4
20260830123101 69 283 0.0 2.6 0.00 0.46 0.44 88 1013.7
20260830121607 69 278 0.9 3.5 0.00 0.46 0.44 89 1013.6
20260830114616 68 281 0.0 2.6 0.00 0.46 0.44 90 1013.4
20260830113104 68 0 0.9 1.7 0.01 0.46 0.44 91 1013.1
20260830111603 68 285 0.9 2.6 0.01 0.46 0.44 90 1012.9
20260830104600 69 284 1.7 4.3 0.01 0.46 0.44 87 1012.7
20260830103105 69 262 1.7 6.1 0.00 0.45 0.43 87 1012.7
20260830101607 68 315 0.0 1.7 0.00 0.45 0.43 90 1012.8
20260830100121 69 264 0.0 2.6 0.02 0.45 0.43 88 1012.7
20260830094612 69 34 0.9 2.6 0.42 0.45 0.43 88 1012.9
20260830093100 70 103 0.0 5.2 0.43 0.45 0.43 86 1013.1
20260830091601 68 47 0.9 5.2 0.43 0.45 0.43 89 1013.7
20260830090113 69 278 2.6 8.7 0.41 0.43 0.41 86 1013.9
20260830084602 73 275 3.5 6.1 0.01 0.03 0.01 75 1014.3
20260830083106 72 257 0.9 3.5 0.00 0.02 0.00 78 1013.1
20260830081637 72 264 0.0 2.6 0.00 0.02 0.00 79 1012.8
20260830080104 72 256 1.7 6.1 0.00 0.02 0.00 78 1013.0
20260830074609 71 276 0.0 3.5 0.00 0.02 0.00 79 1013.0
20260830073101 71 264 0.9 2.6 0.00 0.02 0.00 79 1013.2
20260830071606 71 271 0.9 3.5 0.00 0.02 0.00 80 1013.8
20260830070100 71 293 0.9 2.6 0.00 0.02 0.00 80 1014.0
20260830064601 71 255 0.0 2.6 0.00 0.02 0.00 80 1014.3
20260830063114 71 310 0.0 2.6 0.00 0.02 0.00 79 1014.5
20260830061559 71 283 0.9 2.6 0.00 0.02 0.00 80 1014.6
20260830060059 70 287 0.0 1.7 0.00 0.02 0.00 81 1014.6
20260830054600 71 0 0.0 1.7 0.00 0.02 0.00 81 1014.7
20260830053107 71 0 0.0 1.7 0.00 0.02 0.00 81 1014.7
20260830051608 70 291 0.9 3.5 0.00 0.02 0.00 82 1015.0
20260830050109 69 0 0.0 0.9 0.00 0.02 0.00 84 1015.0
20260830044610 69 0 0.0 0.9 0.00 0.02 0.02 84 1015.1
20260830043113 70 0 0.0 0.9 0.00 0.02 0.02 83 1014.9
20260830041624 70 0 0.0 0.9 0.00 0.02 0.02 83 1015.0
20260830040116 70 0 0.0 2.6 0.00 0.02 0.02 83 1015.0
20260830034606 70 46 0.0 0.9 0.00 0.02 0.02 83 1015.0
20260830033115 70 0 0.0 1.7 0.00 0.02 0.02 83 1015.0
20260830031559 70 167 0.0 1.7 0.00 0.02 0.02 83 1014.8
20260830024558 71 270 0.0 3.5 0.00 0.02 0.02 82 1014.7
20260830023101 71 60 0.9 6.1 0.00 0.02 0.02 83 1014.6
20260830021606 71 31 0.9 3.5 0.00 0.02 0.02 82 1014.6
20260830020113 71 81 1.7 6.1 0.00 0.02 0.02 83 1014.5
20260830014602 71 44 1.7 4.3 0.00 0.02 0.02 83 1014.4
20260830013101 71 90 1.7 5.2 0.00 0.02 0.02 83 1014.5
20260830011603 71 37 1.7 4.3 0.00 0.02 0.02 84 1014.7
20260830004601 71 44 0.9 4.3 0.00 0.02 0.02 84 1014.5
20260830003121 71 103 0.9 4.3 0.00 0.02 0.02 84 1014.8